TimeEST,TemperatureF,Dew PointF,Humidity,Sea Level PressureIn,VisibilityMPH,Wind Direction,Wind SpeedMPH,Gust SpeedMPH,PrecipitationIn,Events,Conditions,WindDirDegrees,DateUTC
12:33 AM,51.8,46.4,82,30.00,10.0,SW,9.2,-,N/A,,Overcast,230,2013-01-14 05:33:00
12:54 AM,52.0,46.9,83,29.99,10.0,SW,10.4,-,N/A,,Overcast,230,2013-01-14 05:54:00
1:54 AM,51.1,48.0,89,29.99,10.0,SW,6.9,-,N/A,,Overcast,230,2013-01-14 06:54:00
2:08 AM,51.8,48.2,88,29.99,9.0,SW,4.6,-,N/A,,Overcast,230,2013-01-14 07:08:00
2:54 AM,51.1,48.0,89,29.99,8.0,SSW,5.8,-,N/A,,Overcast,200,2013-01-14 07:54:00
3:54 AM,52.0,48.0,86,29.95,10.0,SW,10.4,-,N/A,,Overcast,220,2013-01-14 08:54:00
4:54 AM,51.8,48.2,88,29.94,10.0,SW,10.4,-,N/A,,Overcast,230,2013-01-14 09:54:00
5:54 AM,51.1,46.9,86,29.93,10.0,SSW,9.2,-,N/A,,Overcast,210,2013-01-14 10:54:00
6:54 AM,52.0,48.0,86,29.88,10.0,SSW,12.7,20.7,N/A,,Overcast,200,2013-01-14 11:54:00
7:54 AM,53.1,48.0,83,29.95,10.0,WSW,6.9,-,N/A,,Overcast,250,2013-01-14 12:54:00
8:52 AM,53.6,48.2,82,29.97,10.0,WSW,6.9,-,N/A,,Overcast,240,2013-01-14 13:52:00
8:54 AM,53.1,48.0,83,29.97,10.0,SW,6.9,-,N/A,,Mostly Cloudy,230,2013-01-14 13:54:00
9:12 AM,53.6,48.2,82,29.97,10.0,SW,8.1,-,N/A,,Scattered Clouds,230,2013-01-14 14:12:00
9:54 AM,55.0,48.9,80,30.00,10.0,WSW,9.2,-,N/A,,Scattered Clouds,240,2013-01-14 14:54:00
10:01 AM,55.4,48.2,77,30.00,10.0,WSW,9.2,-,N/A,,Mostly Cloudy,250,2013-01-14 15:01:00
10:47 AM,57.2,48.2,72,29.99,10.0,WSW,9.2,-,N/A,,Scattered Clouds,240,2013-01-14 15:47:00
10:54 AM,57.0,48.9,74,29.99,10.0,SW,10.4,-,N/A,,Partly Cloudy,230,2013-01-14 15:54:00
11:54 AM,57.9,48.0,70,29.98,10.0,WSW,10.4,-,N/A,,Clear,240,2013-01-14 16:54:00
12:54 PM,62.1,45.0,53,29.97,10.0,West,10.4,-,N/A,,Clear,270,2013-01-14 17:54:00
1:54 PM,62.1,41.0,46,30.01,10.0,West,15.0,24.2,N/A,,Clear,280,2013-01-14 18:54:00
2:54 PM,60.1,34.0,38,30.05,10.0,NW,15.0,24.2,N/A,,Clear,310,2013-01-14 19:54:00
3:54 PM,55.9,28.9,36,30.10,10.0,WNW,15.0,27.6,N/A,,Clear,290,2013-01-14 20:54:00
4:54 PM,52.0,28.9,41,30.12,10.0,WNW,5.8,-,N/A,,Clear,300,2013-01-14 21:54:00
5:54 PM,50.0,25.0,38,30.14,10.0,NW,4.6,-,N/A,,Clear,320,2013-01-14 22:54:00
6:54 PM,48.0,24.1,39,30.15,10.0,NNW,5.8,-,N/A,,Clear,330,2013-01-14 23:54:00
7:54 PM,46.0,25.0,44,30.19,10.0,NNW,9.2,-,N/A,,Clear,330,2013-01-15 00:54:00
8:54 PM,45.0,26.1,48,30.22,10.0,NNW,6.9,-,N/A,,Scattered Clouds,330,2013-01-15 01:54:00
9:54 PM,44.1,26.1,49,30.22,10.0,NNW,8.1,-,N/A,,Clear,330,2013-01-15 02:54:00
10:54 PM,42.1,25.0,51,30.24,10.0,NW,6.9,-,N/A,,Clear,320,2013-01-15 03:54:00
11:54 PM,41.0,23.0,49,30.27,10.0,NW,9.2,-,N/A,,Clear,310,2013-01-15 04:54:00